Location: Heidgraben
(53.7081°N, 9.6576°E)
Time: 08:32:50
(UTC+00:00)

SL-16 R/B - Pass Details

Date: 05 July 2020
Orbit: 840 x 850 km, 71.0° (Epoch: 14 August)

Event Time Altitude Azimuth Distance (km) Brightness Sun altitude
Exits shadow 23:00:34 18° 188° (S) 1,946 3.5 -13.4°
Maximum altitude 23:04:40 58° 115° (ESE) 985 2.4 -13.5°
Drops below altitude 10° 23:10:15 10° 37° (NE) 2,484 5.4 -13.6°
Sets 23:12:44 0° 34° (NE) 3,425 6.3 -13.6°
